This is the latest recevied weather packets stored in our database for station/object DH5WR-10. If no packets are shown the sender has not sent any weather packets the latest 1 day(s).
| Time | Temp. | Humidity | Pressure | Rain* | Wind** | Luminosity | Snow |
|---|---|---|---|---|---|---|---|
| 1777720039 | 23.33° C | 27% | 1022.6 hPa | - | - | - | - |
| 1777719139 | 23.33° C | 27% | 1022.7 hPa | - | - | - | - |
| 1777718239 | 23.33° C | 30% | 1022.8 hPa | - | - | - | - |
| 1777717339 | 21.11° C | 33% | 1023.1 hPa | - | - | - | - |
| 1777716439 | 21.67° C | 34% | 1023.2 hPa | - | - | - | - |
| 1777715539 | 21.11° C | 37% | 1023.3 hPa | - | - | - | - |
| 1777714638 | 20.56° C | 38% | 1023.5 hPa | - | - | - | - |
| 1777713738 | 20° C | 39% | 1023.5 hPa | - | - | - | - |
| 1777712838 | 19.44° C | 38% | 1023.6 hPa | - | - | - | - |
| 1777711938 | 18.33° C | 41% | 1023.6 hPa | - | - | - | - |
| 1777711038 | 18.89° C | 39% | 1023.7 hPa | - | - | - | - |
| 1777710138 | 17.78° C | 40% | 1023.9 hPa | - | - | - | - |
| 1777709238 | 17.22° C | 41% | 1023.9 hPa | - | - | - | - |
| 1777708337 | 16.67° C | 44% | 1024.1 hPa | - | - | - | - |
| 1777707437 | 16.11° C | 45% | 1024.1 hPa | - | - | - | - |
| 1777706537 | 15° C | 48% | 1024.1 hPa | - | - | - | - |
| 1777705637 | 15° C | 48% | 1024.1 hPa | - | - | - | - |
| 1777704737 | 13.89° C | 50% | 1024 hPa | - | - | - | - |
| 1777703836 | 13.89° C | 47% | 1024.1 hPa | - | - | - | - |
| 1777702936 | 16.11° C | 43% | 1024.1 hPa | - | - | - | - |
* Rain since midnight (hover to see other rain measurements)
** Current wind speed in m/s (hover to see current wind gust speed)